SCP
0 0 0 0 0 0 0 0 0 0 0 0 0 0 0 -0 -0 0 0 0 0 0 0 0 0 0 0 0 0 0 0 0
0 0 0 0 0 0 0 0 0 0 0 0 0 0 0 0 0 -0 0 0 0 0 0 0 0 0 0 0 0 0 0 0
0 0 0 0 0 0 0 0 0 0 0 0 0 0 0 0 0 0 0 0 0 0 0 0 0 0 0 0 0 0 0 0
0 0 0 0 0 0 0 0 0 0 0 0 0 0 0 0 0 0 0 0 0 0 0 0 0 0 0 0 0 0 0 0
0 0 0 0 0 0 0 0 0 0 0 0 0 0 0 0 0 0 0 0 0 0 0 0 0 0 0 0 0 0 0 0
0 0 0 0 0 0 0 0 0 0 0 0 0 0 0 0 0 0 0 0 0 0 0 0 0 0 0 0 0 0 0 0
0 0 0 0 0 0 0 0 0 0 0 0 0 0 0 0 0 0 0 0 0 0 0 0 0 0 0 0 0 0 0 0
0 0 0 0 0 0 0 0 0 0 0 0 0 0 0 0 0 0 0 0 0 0 0 0 0 0 0 0 0 0 0 0
0 0 0 0 0 0 0 0 0 0 0 0 0 0 0 0 0 0 0 0 0 0 0 0 0 0 0 0 0 0 0 0
0 0 0 0 0 0 0 0 0 0 0 0 0 0 0 0 0 0 0 0 0 0 0 0 0 0 0 0 0 0 0 0
0 0 0 0 0 0 0 0 0 0 0 0 0 0 0 0 0 0 0 0 0 0 0 0 0 0 0 0 0 0 0 0
0 0 0 0 0 0 0 0 0 0 0 0 0 0 0 0 0 0 0 0 0 0 0 0 0 0 0 0 0 0 0 0
0 0 0 0 0 0 0 1 1 0 0 0 0 0 0 0 0 0 0 0 0 0 0 0 0 0 0 0 0 1 0 0
0 0 0 0 0 0 0 1 0 0 0 0 0 0 0 0 0 0 0 0 0 0 0 0 0 0 0 0 0 0 1 0
0 0 0 0 0 0 0 0 0 0 0 0 0 0 0 0 0 0 0 0 0 0 0 0 0 0 0 0 0 0 0 0
0 0 0 0 0 0 0 0 0 0 0 0 0 0 0 0 0 0 0 0 0 0 0 0 0 0 0 0 0 0 0 0
0 0 0 0 0 0 0 0 0 0 0 0 0 0 0 0 0 0 0 0 0 0 0 0 0 0 0 0 0 0 -0 0
0 0 0 0 0 0 0 0 0 0 0 0 0 0 0 0 0 0 0 0 0 0 0 0 0 0 0 0 0 0 0 0
0 0 0 0 0 0 0 0 0 0 0 0 0 0 0 0 0 0 0 0 0 0 0 0 0 0 0 0 0 0 0 0
0 0 0 0 0 0 0 0 0 0 0 0 0 0 0 0 0 0 0 0 0 0 0 0 0 0 0 0 0 0 0 0
Wind_Speed_500mb
38 34 31 26 22 18 15 12 9 4 9 13 18 16 19 17 24 23 21 18 20 25 29 25 26 18 18 20 25 28 30 28
41 34 30 30 25 20 21 19 13 7 8 12 17 19 20 18 23 23 21 21 23 25 27 21 23 25 22 26 29 29 29 29
39 34 28 28 28 24 24 22 17 12 15 20 21 23 23 22 23 25 27 27 24 22 19 21 25 29 28 26 28 31 30 28
40 37 31 30 26 25 28 26 22 21 21 25 27 27 26 26 25 26 28 29 31 27 24 24 27 29 32 32 28 28 27 27
40 30 25 22 22 28 29 31 30 31 30 30 30 30 34 33 37 35 32 35 35 33 32 31 31 32 34 32 29 28 26 23
37 36 34 33 31 32 36 40 39 37 35 35 35 37 38 38 36 41 42 38 36 32 32 34 35 36 37 34 31 26 24 25
40 36 39 36 34 37 39 40 41 39 39 40 42 43 45 42 39 41 41 43 42 33 33 30 31 35 35 34 34 34 31 31
35 34 36 36 38 39 37 37 37 36 38 40 43 44 41 38 42 42 44 41 41 37 40 36 31 35 36 33 35 38 42 36
41 40 34 36 39 37 30 30 25 28 32 35 36 39 39 36 36 39 42 35 30 35 39 43 41 39 38 38 37 41 34 32
35 35 32 32 31 31 25 21 21 24 29 30 29 33 35 34 34 37 38 35 33 34 40 43 46 47 45 43 40 39 36 36
33 33 33 33 33 30 24 25 26 26 22 24 24 25 27 31 35 37 34 32 31 36 40 43 52 56 53 50 45 41 34 29
34 33 36 37 34 35 26 25 23 18 18 21 22 20 22 31 36 36 37 39 44 46 46 48 49 49 51 49 46 42 38 34
37 34 37 35 28 22 22 18 15 13 14 18 20 24 29 31 33 36 40 46 51 45 45 46 49 53 49 46 45 42 36 37
39 39 31 23 19 11 17 18 15 19 20 23 27 30 33 35 33 38 40 46 53 53 49 48 43 41 49 51 43 46 39 39
25 25 23 22 11 16 19 12 18 20 26 33 37 37 39 42 42 43 47 53 60 58 52 48 43 42 42 46 44 42 36 32
24 24 23 16 3 28 20 15 21 24 35 39 42 42 46 47 44 48 51 58 62 60 55 52 53 49 46 41 52 56 48 38
26 23 20 17 20 24 20 21 28 35 39 41 43 46 45 45 48 52 58 60 59 58 53 49 50 48 46 41 40 35 46 43
24 22 24 17 19 31 31 34 42 45 43 40 43 44 46 49 53 55 57 58 56 54 54 56 55 51 44 44 44 42 49 37
23 23 23 21 30 32 37 41 44 42 39 41 41 44 47 52 57 60 57 53 50 53 55 58 55 50 41 40 41 40 42 36
13 15 12 21 27 35 35 35 31 34 36 37 39 47 55 60 61 53 46 49 53 55 57 52 49 44 33 31 36 41 37 35
Wind_Direction_500mb
185 188 192 196 199 208 209 224 231 241 341 343 338 343 341 350 0 359 352 345 340 342 345 354 6 337 320 308 304 306 313 316
186 187 196 204 216 227 227 233 233 259 299 310 332 330 335 340 347 351 350 343 338 337 336 349 359 2 342 315 306 304 312 311
193 197 209 221 233 229 228 237 240 249 291 305 321 321 321 330 335 339 342 339 333 330 338 340 343 343 338 324 302 300 306 306
201 208 220 233 242 233 234 241 249 268 282 295 307 314 309 317 319 321 328 327 329 311 310 313 321 323 325 325 317 298 301 305
214 219 233 246 250 249 250 252 258 261 272 285 291 305 306 309 314 311 311 313 316 311 294 300 304 309 315 310 317 313 300 301
220 219 230 238 245 250 251 250 257 266 277 283 288 303 306 305 315 313 303 301 300 304 294 291 296 299 311 305 304 307 297 299
226 228 235 242 251 253 248 254 266 276 280 284 289 297 306 301 303 312 304 292 295 290 295 293 285 285 299 303 298 302 296 299
227 230 238 247 252 257 260 261 269 276 281 287 289 297 304 304 303 307 311 293 285 283 289 293 284 281 288 295 293 296 297 294
235 234 238 242 244 245 252 258 267 277 285 285 292 296 303 306 308 308 309 293 285 286 286 285 282 278 281 285 287 296 290 292
238 230 232 236 241 239 240 256 263 268 280 287 291 301 308 310 313 315 315 306 281 287 291 284 276 273 275 277 281 288 284 285
237 231 235 238 241 238 248 251 256 268 284 290 300 311 321 327 324 324 326 323 315 304 302 292 278 272 265 271 274 280 273 272
242 233 238 242 246 240 249 249 265 262 282 296 303 304 326 339 344 333 327 322 318 311 307 303 289 276 266 262 271 268 268 268
244 244 241 247 239 237 255 260 259 284 296 304 302 308 304 315 332 331 320 323 326 314 308 309 294 280 265 263 264 260 267 276
243 242 244 229 216 220 282 256 303 308 307 304 300 293 293 303 314 320 316 318 320 319 316 307 308 293 277 262 254 258 262 265
205 215 212 196 178 314 267 266 291 286 283 292 283 284 288 292 297 303 305 312 316 316 313 313 308 305 291 260 250 247 247 253
202 198 187 176 216 289 242 270 278 280 285 281 277 280 283 286 290 298 307 313 311 311 310 309 309 306 297 274 243 257 260 243
212 212 196 210 301 238 255 269 269 273 281 278 278 283 285 288 291 297 304 309 304 306 308 310 311 307 295 273 262 238 233 245
217 219 219 245 269 238 252 262 266 274 287 282 284 286 289 293 297 300 304 305 302 304 306 306 308 302 297 270 246 245 237 243
219 233 235 243 243 252 264 272 282 286 286 286 289 293 297 300 304 306 306 302 303 308 310 308 307 303 294 269 248 239 237 231
230 236 246 257 261 267 278 294 296 290 291 300 303 306 306 308 310 311 304 300 306 312 313 311 307 300 285 254 246 234 230 234
Wind_Speed_850mb
38 34 31 26 22 18 15 12 9 4 9 13 18 16 19 17 24 23 21 18 20 25 29 25 26 18 18 20 25 28 30 28
41 34 30 30 25 20 21 19 13 7 8 12 17 19 20 18 23 23 21 21 23 25 27 21 23 25 22 26 29 29 29 29
39 34 28 28 28 24 24 22 17 12 15 20 21 23 23 22 23 25 27 27 24 22 19 21 25 29 28 26 28 31 30 28
40 37 31 30 26 25 28 26 22 21 21 25 27 27 26 26 25 26 28 29 31 27 24 24 27 29 32 32 28 28 27 27
40 30 25 22 22 28 29 31 30 31 30 30 30 30 34 33 37 35 32 35 35 33 32 31 31 32 34 32 29 28 26 23
37 36 34 33 31 32 36 40 39 37 35 35 35 37 38 38 36 41 42 38 36 32 32 34 35 36 37 34 31 26 24 25
40 36 39 36 34 37 39 40 41 39 39 40 42 43 45 42 39 41 41 43 42 33 33 30 31 35 35 34 34 34 31 31
35 34 36 36 38 39 37 37 37 36 38 40 43 44 41 38 42 42 44 41 41 37 40 36 31 35 36 33 35 38 42 36
41 40 34 36 39 37 30 30 25 28 32 35 36 39 39 36 36 39 42 35 30 35 39 43 41 39 38 38 37 41 34 32
35 35 32 32 31 31 25 21 21 24 29 30 29 33 35 34 34 37 38 35 33 34 40 43 46 47 45 43 40 39 36 36
33 33 33 33 33 30 24 25 26 26 22 24 24 25 27 31 35 37 34 32 31 36 40 43 52 56 53 50 45 41 34 29
34 33 36 37 34 35 26 25 23 18 18 21 22 20 22 31 36 36 37 39 44 46 46 48 49 49 51 49 46 42 38 34
37 34 37 35 28 22 22 18 15 13 14 18 20 24 29 31 33 36 40 46 51 45 45 46 49 53 49 46 45 42 36 37
39 39 31 23 19 11 17 18 15 19 20 23 27 30 33 35 33 38 40 46 53 53 49 48 43 41 49 51 43 46 39 39
25 25 23 22 11 16 19 12 18 20 26 33 37 37 39 42 42 43 47 53 60 58 52 48 43 42 42 46 44 42 36 32
24 24 23 16 3 28 20 15 21 24 35 39 42 42 46 47 44 48 51 58 62 60 55 52 53 49 46 41 52 56 48 38
26 23 20 17 20 24 20 21 28 35 39 41 43 46 45 45 48 52 58 60 59 58 53 49 50 48 46 41 40 35 46 43
24 22 24 17 19 31 31 34 42 45 43 40 43 44 46 49 53 55 57 58 56 54 54 56 55 51 44 44 44 42 49 37
23 23 23 21 30 32 37 41 44 42 39 41 41 44 47 52 57 60 57 53 50 53 55 58 55 50 41 40 41 40 42 36
13 15 12 21 27 35 35 35 31 34 36 37 39 47 55 60 61 53 46 49 53 55 57 52 49 44 33 31 36 41 37 35
Wind_Direction_850mb
185 188 192 196 199 208 209 224 231 241 341 343 338 343 341 350 0 359 352 345 340 342 345 354 6 337 320 308 304 306 313 316
186 187 196 204 216 227 227 233 233 259 299 310 332 330 335 340 347 351 350 343 338 337 336 349 359 2 342 315 306 304 312 311
193 197 209 221 233 229 228 237 240 249 291 305 321 321 321 330 335 339 342 339 333 330 338 340 343 343 338 324 302 300 306 306
201 208 220 233 242 233 234 241 249 268 282 295 307 314 309 317 319 321 328 327 329 311 310 313 321 323 325 325 317 298 301 305
214 219 233 246 250 249 250 252 258 261 272 285 291 305 306 309 314 311 311 313 316 311 294 300 304 309 315 310 317 313 300 301
220 219 230 238 245 250 251 250 257 266 277 283 288 303 306 305 315 313 303 301 300 304 294 291 296 299 311 305 304 307 297 299
226 228 235 242 251 253 248 254 266 276 280 284 289 297 306 301 303 312 304 292 295 290 295 293 285 285 299 303 298 302 296 299
227 230 238 247 252 257 260 261 269 276 281 287 289 297 304 304 303 307 311 293 285 283 289 293 284 281 288 295 293 296 297 294
235 234 238 242 244 245 252 258 267 277 285 285 292 296 303 306 308 308 309 293 285 286 286 285 282 278 281 285 287 296 290 292
238 230 232 236 241 239 240 256 263 268 280 287 291 301 308 310 313 315 315 306 281 287 291 284 276 273 275 277 281 288 284 285
237 231 235 238 241 238 248 251 256 268 284 290 300 311 321 327 324 324 326 323 315 304 302 292 278 272 265 271 274 280 273 272
242 233 238 242 246 240 249 249 265 262 282 296 303 304 326 339 344 333 327 322 318 311 307 303 289 276 266 262 271 268 268 268
244 244 241 247 239 237 255 260 259 284 296 304 302 308 304 315 332 331 320 323 326 314 308 309 294 280 265 263 264 260 267 276
243 242 244 229 216 220 282 256 303 308 307 304 300 293 293 303 314 320 316 318 320 319 316 307 308 293 277 262 254 258 262 265
205 215 212 196 178 314 267 266 291 286 283 292 283 284 288 292 297 303 305 312 316 316 313 313 308 305 291 260 250 247 247 253
202 198 187 176 216 289 242 270 278 280 285 281 277 280 283 286 290 298 307 313 311 311 310 309 309 306 297 274 243 257 260 243
212 212 196 210 301 238 255 269 269 273 281 278 278 283 285 288 291 297 304 309 304 306 308 310 311 307 295 273 262 238 233 245
217 219 219 245 269 238 252 262 266 274 287 282 284 286 289 293 297 300 304 305 302 304 306 306 308 302 297 270 246 245 237 243
219 233 235 243 243 252 264 272 282 286 286 286 289 293 297 300 304 306 306 302 303 308 310 308 307 303 294 269 248 239 237 231
230 236 246 257 261 267 278 294 296 290 291 300 303 306 306 308 310 311 304 300 306 312 313 311 307 300 285 254 246 234 230 234